User: anonymous   Login
Location: Unspecified
(0.0000°N, 0.0000°E)
Time: 00:24:06
(UTC+01:00)
Language:

Cosmos 2263 Rocket - Orbit

View from above orbital plane
View from above orbital plane
View from above satellite
View from above satellite

Ground track
Ground track

The orbit data is extracted from the following two-line orbital elements,

1 22803U 93059B   17017.13245219  .00000235  00000-0  14098-3 0  9999
2 22803  70.9881 207.7406 0019462 257.1722 102.7227 14.16761349206881
Epoch (UTC): 17 January 2017 03:10:43
Eccentricity: 0.0019462
inclination: 70.9881°
perigee height: 822 km
apogee height: 850 km
right ascension of ascending node: 207.7406°
argument of perigee: 257.1722°
revolutions per day: 14.16761349
mean anomaly at epoch: 102.7227°
orbit number at epoch: 20688

The dashed part of the orbit path shows where the satellite is in the earth's shadow,  

DLR